EW5029 Weather Reports


Display with metric or nautical units.
time (UTC)temp
F
wind
direction
speed
MPH
gust
MPH
rain 1hr
in
rain 24hr
in
rain mn
in
humidity
%
barometer
mb
20260831212544 62 333 0.0 0.0 0.00 0.55 0.32 89 1015.6
20260831212047 62 333 0.0 0.0 0.00 0.55 0.32 89 1015.6
20260831211544 62 333 0.0 0.0 0.00 0.55 0.32 89 1015.6
20260831211043 62 333 0.0 0.0 0.00 0.55 0.32 88 1015.5
20260831210543 62 333 0.0 0.0 0.00 0.55 0.32 88 1015.5
20260831210042 62 333 0.0 0.0 0.00 0.55 0.32 88 1015.5
20260831205541 62 333 0.0 0.0 0.00 0.56 0.32 87 1015.4
20260831205042 62 333 0.0 0.0 0.00 0.56 0.32 87 1015.4
20260831204545 62 333 0.0 0.0 0.00 0.56 0.32 87 1015.3
20260831204040 62 333 0.0 0.0 0.00 0.56 0.32 86 1015.3
20260831203538 63 333 0.0 0.0 0.00 0.56 0.32 86 1015.2
20260831203048 63 333 0.0 0.0 0.00 0.56 0.32 86 1015.2
20260831202543 63 333 0.0 0.0 0.00 0.56 0.32 85 1015.1
20260831202038 63 333 0.0 0.0 0.00 0.56 0.32 85 1015.2
20260831201538 64 333 0.0 0.0 0.00 0.56 0.32 85 1015.2
20260831201038 64 333 0.0 1.0 0.00 0.56 0.32 85 1015.1
20260831200538 64 333 0.0 4.0 0.00 0.56 0.32 85 1015.1
20260831200040 64 333 0.0 4.0 0.00 0.56 0.32 85 1015.0
20260831195536 64 321 0.0 4.0 0.00 0.56 0.32 84 1015.0
20260831195035 64 336 0.0 3.0 0.00 0.56 0.32 84 1014.9
20260831194535 64 322 1.0 5.0 0.00 0.56 0.32 84 1014.9
20260831194037 64 318 0.0 5.0 0.00 0.56 0.32 84 1014.8
20260831193534 64 322 1.0 5.0 0.00 0.56 0.32 83 1014.7
20260831193034 65 347 1.0 4.0 0.00 0.56 0.32 83 1014.7
20260831192532 65 333 1.0 4.0 0.00 0.56 0.32 83 1014.7
20260831192032 65 338 0.0 5.0 0.00 0.56 0.32 83 1014.6
20260831191543 65 208 1.0 6.0 0.00 0.56 0.32 83 1014.6
20260831191031 65 360 1.0 6.0 0.00 0.56 0.32 83 1014.5
20260831190530 65 355 1.0 6.0 0.00 0.56 0.32 83 1014.4
20260831190030 65 309 1.0 6.0 0.00 0.56 0.32 82 1014.4
20260831185528 65 332 2.0 6.0 0.00 0.56 0.32 82 1014.3
20260831185031 65 322 2.0 6.0 0.00 0.56 0.32 82 1014.2
20260831184529 65 311 2.0 6.0 0.00 0.56 0.32 82 1014.2
20260831184031 65 310 1.0 9.0 0.00 0.56 0.32 82 1014.0
20260831183529 65 316 1.0 10.0 0.00 0.56 0.32 82 1014.0
20260831183026 66 78 2.0 10.0 0.00 0.56 0.32 81 1013.9
20260831182525 66 336 2.0 9.0 0.00 0.56 0.32 81 1013.8
20260831182025 66 313 2.0 10.0 0.00 0.56 0.32 81 1013.8
20260831181524 66 325 4.0 10.0 0.00 0.56 0.32 81 1013.6
20260831181023 66 355 2.0 9.0 0.00 0.56 0.32 82 1013.6
20260831180521 66 296 2.0 8.0 0.00 0.56 0.32 82 1013.5
20260831180021 66 355 2.0 10.0 0.00 0.56 0.32 81 1013.4
20260831175521 66 9 2.0 10.0 0.00 0.56 0.32 81 1013.4
20260831175020 66 34 2.0 6.0 0.00 0.56 0.32 81 1013.3
20260831174520 66 318 1.0 9.0 0.00 0.56 0.32 81 1013.2
20260831174023 66 317 3.0 12.0 0.00 0.56 0.32 80 1013.2
20260831173519 66 307 4.0 12.0 0.00 0.56 0.32 80 1013.1
20260831173020 66 319 4.0 10.0 0.00 0.56 0.32 80 1013.0
20260831172517 66 330 3.0 16.0 0.00 0.56 0.32 79 1012.9
20260831172020 66 311 6.0 16.0 0.00 0.56 0.32 79 1012.9
20260831171516 66 40 5.0 13.0 0.00 0.56 0.32 79 1012.8
20260831171015 66 317 4.0 15.0 0.00 0.56 0.32 79 1012.8
20260831170515 67 323 6.0 15.0 0.00 0.56 0.32 79 1012.6
20260831170017 67 325 4.0 10.0 0.00 0.56 0.32 79 1012.5
20260831165512 66 329 4.0 15.0 0.00 0.56 0.32 79 1012.5
20260831165012 67 335 5.0 15.0 0.00 0.56 0.32 78 1012.5
20260831164511 67 303 5.0 16.0 0.00 0.56 0.32 78 1012.4
20260831164012 67 313 7.0 18.0 0.00 0.56 0.32 78 1012.4
20260831163511 67 317 6.0 18.0 0.00 0.56 0.32 78 1012.4
20260831163011 67 39 5.0 16.0 0.00 0.56 0.32 78 1012.3
20260831162508 67 355 7.0 19.0 0.00 0.56 0.32 78 1012.2
20260831162008 67 336 5.0 19.0 0.00 0.56 0.32 78 1012.2
20260831161508 67 312 6.0 18.0 0.00 0.56 0.32 78 1012.1
20260831161007 67 315 8.0 18.0 0.00 0.56 0.32 78 1012.2
20260831160507 67 311 6.0 15.0 0.00 0.56 0.32 78 1012.1
20260831160008 67 172 4.0 16.0 0.00 0.56 0.32 80 1012.0
20260831155506 66 313 4.0 16.0 0.00 0.56 0.32 78 1011.9
20260831155006 67 355 5.0 17.0 0.00 0.56 0.32 78 1011.8
20260831154505 67 308 7.0 17.0 0.00 0.56 0.32 78 1011.8
20260831154004 67 305 7.0 19.0 0.00 0.56 0.32 77 1011.8
20260831153506 66 296 6.0 19.0 0.00 0.56 0.32 80 1011.7
20260831153004 66 174 5.0 18.0 0.00 0.56 0.32 80 1011.5
20260831152502 66 273 5.0 18.0 0.00 0.56 0.32 79 1011.6
20260831152005 66 142 6.0 18.0 0.00 0.56 0.32 78 1011.5
20260831151502 67 5 3.0 13.0 0.00 0.56 0.32 78 1011.5
20260831151101 67 355 5.0 14.0 0.00 0.56 0.32 78 1011.5
20260831150601 67 327 4.0 17.0 0.00 0.56 0.32 77 1011.3
20260831150108 67 68 6.0 16.0 0.00 0.56 0.32 78 1011.3
20260831145600 67 238 5.0 17.0 0.00 0.56 0.32 77 1011.3
20260831145059 67 347 4.0 17.0 0.00 0.56 0.32 77 1011.2
20260831144559 67 303 5.0 14.0 0.00 0.56 0.32 77 1011.2
20260831144059 67 289 5.0 14.0 0.00 0.56 0.32 77 1011.1
20260831143559 67 321 4.0 18.0 0.00 0.56 0.32 77 1011.1
20260831143104 67 17 7.0 16.0 0.00 0.56 0.32 76 1011.0
20260831142556 66 79 5.0 19.0 0.00 0.56 0.32 77 1010.9
20260831142057 67 342 8.0 20.0 0.00 0.56 0.32 75 1010.8
20260831141600 67 300 5.0 20.0 0.00 0.56 0.32 78 1010.8
20260831141055 67 209 6.0 15.0 0.00 0.56 0.32 75 1010.7
20260831140556 67 317 3.0 16.0 0.00 0.56 0.32 78 1010.7
20260831140057 66 296 6.0 16.0 0.00 0.56 0.32 78 1010.6
20260831135553 66 315 6.0 16.0 0.00 0.56 0.32 77 1010.5
20260831135053 66 5 5.0 16.0 0.00 0.56 0.32 78 1010.5
20260831134555 66 234 4.0 17.0 0.00 0.56 0.32 77 1010.3
20260831134051 66 335 4.0 18.0 0.00 0.56 0.32 77 1010.2
20260831133550 66 323 4.0 18.0 0.00 0.56 0.32 76 1010.1
20260831133051 66 315 5.0 21.0 0.00 0.56 0.32 76 1010.1
20260831132550 66 247 4.0 22.0 0.00 0.56 0.32 76 1009.9
20260831132050 66 303 4.0 19.0 0.00 0.56 0.32 76 1009.9
20260831131550 66 334 5.0 20.0 0.00 0.56 0.32 77 1009.9
20260831131048 66 258 6.0 21.0 0.00 0.56 0.32 75 1009.9
20260831130550 66 186 5.0 21.0 0.00 0.56 0.32 76 1009.8
20260831130048 66 315 4.0 14.0 0.00 0.56 0.32 77 1009.7
20260831125547 66 333 6.0 20.0 0.00 0.57 0.32 76 1009.7
20260831125047 66 316 6.0 20.0 0.00 0.57 0.32 75 1009.6
20260831124557 66 292 6.0 19.0 0.00 0.57 0.32 75 1009.6
20260831124045 66 333 7.0 17.0 0.00 0.57 0.32 75 1009.6
20260831123545 67 282 6.0 18.0 0.00 0.57 0.32 74 1009.4
20260831123045 67 286 6.0 18.0 0.00 0.57 0.32 73 1009.3
20260831122544 67 33 5.0 17.0 0.00 0.57 0.32 74 1009.3
20260831122044 68 200 4.0 15.0 0.00 0.57 0.32 77 1009.1
20260831121543 67 23 6.0 15.0 0.00 0.57 0.32 75 1009.1
20260831121043 68 302 6.0 15.0 0.00 0.57 0.32 74 1009.1
20260831120543 68 233 5.0 15.0 0.00 0.57 0.32 75 1008.9
20260831120048 68 63 3.0 12.0 0.00 0.57 0.32 76 1008.9
20260831115542 68 88 3.0 13.0 0.00 0.59 0.32 78 1008.8
20260831115040 67 289 3.0 10.0 0.00 0.59 0.32 79 1008.8
20260831114548 66 80 2.0 12.0 0.01 0.59 0.32 81 1008.7
20260831114039 66 140 3.0 16.0 0.01 0.59 0.32 81 1008.7
20260831113537 66 136 1.0 16.0 0.01 0.59 0.32 81 1008.6
20260831113037 66 17 1.0 12.0 0.01 0.59 0.32 80 1008.6
20260831112535 66 15 2.0 9.0 0.01 0.59 0.32 84 1008.6
20260831112036 65 313 2.0 14.0 0.01 0.59 0.32 88 1008.5
20260831111535 65 288 2.0 14.0 0.01 0.59 0.32 90 1008.5
20260831111035 64 157 2.0 6.0 0.02 0.59 0.32 92 1008.6
20260831110534 63 320 2.0 5.0 0.02 0.59 0.32 93 1008.5
20260831110034 63 299 2.0 5.0 0.02 0.59 0.32 93 1008.4
20260831105537 62 202 1.0 8.0 0.02 0.60 0.32 92 1008.3
20260831105034 62 224 3.0 8.0 0.06 0.60 0.32 92 1008.3
20260831104634 62 142 2.0 14.0 0.13 0.59 0.31 92 1008.2
20260831104034 62 102 3.0 9.0 0.27 0.59 0.31 93 1008.0
20260831103534 62 239 2.0 9.0 0.28 0.59 0.31 94 1008.0
20260831103036 61 135 2.0 7.0 0.28 0.59 0.31 93 1007.9
20260831102534 60 49 1.0 7.0 0.28 0.59 0.31 93 1008.0
20260831102031 60 162 1.0 15.0 0.28 0.59 0.31 93 1008.0
20260831101531 60 211 2.0 15.0 0.28 0.57 0.31 93 1008.1
20260831101030 60 13 4.0 12.0 0.28 0.57 0.31 93 1008.1
20260831100530 60 310 3.0 6.0 0.28 0.56 0.30 93 1007.9
20260831100040 59 76 1.0 6.0 0.28 0.56 0.30 92 1007.9
20260831095529 59 35 1.0 13.0 0.28 0.69 0.30 91 1008.1
20260831095028 60 325 3.0 15.0 0.21 0.62 0.24 89 1008.2
20260831094527 61 176 6.0 15.0 0.13 0.54 0.16 86 1008.0
20260831094026 64 61 6.0 17.0 0.02 0.43 0.05 82 1008.0
20260831093533 65 54 4.0 13.0 0.00 0.41 0.02 82 1007.8
20260831093035 66 121 4.0 11.0 0.00 0.41 0.02 81 1007.4
20260831092525 66 148 3.0 11.0 0.00 0.41 0.02 82 1007.3
20260831092025 66 161 5.0 12.0 0.00 0.41 0.02 83 1007.2
20260831091523 66 106 4.0 12.0 0.00 0.41 0.02 83 1007.1
20260831091026 65 142 3.0 9.0 0.00 0.41 0.02 85 1007.0
20260831090521 64 204 3.0 14.0 0.00 0.41 0.02 86 1007.0
20260831090020 64 205 4.0 11.0 0.00 0.41 0.02 89 1007.1
20260831085519 63 232 2.0 8.0 0.00 0.49 0.02 90 1007.1
20260831085017 63 134 1.0 7.0 0.00 0.49 0.02 90 1007.1
20260831084517 63 194 1.0 7.0 0.01 0.49 0.02 90 1007.1
20260831084016 63 186 2.0 9.0 0.01 0.49 0.02 90 1007.2
20260831083516 63 107 2.0 9.0 0.01 0.49 0.02 89 1007.2
20260831083035 63 213 2.0 8.0 0.01 0.49 0.02 89 1007.1
20260831082515 63 170 2.0 8.0 0.01 0.49 0.02 90 1007.2
20260831082016 63 113 1.0 8.0 0.01 0.49 0.02 89 1007.1
20260831081517 63 117 1.0 10.0 0.01 0.49 0.02 89 1007.1
20260831081017 63 121 2.0 10.0 0.01 0.49 0.02 89 1007.1
20260831080515 63 279 2.0 10.0 0.01 0.49 0.02 89 1007.2
20260831080019 63 90 3.0 13.0 0.01 0.49 0.02 89 1007.2
20260831075513 63 188 3.0 13.0 0.01 0.70 0.02 90 1007.1
20260831075013 63 173 4.0 12.0 0.01 0.70 0.02 90 1007.1
20260831074517 63 192 2.0 9.0 0.00 0.69 0.02 91 1007.1
20260831074015 62 186 4.0 10.0 0.00 0.69 0.02 92 1007.0
20260831073511 62 180 4.0 10.0 0.00 0.69 0.02 92 1007.0
20260831073011 62 214 3.0 10.0 0.00 0.69 0.02 93 1006.9
20260831072510 62 126 3.0 10.0 0.00 0.69 0.02 93 1006.9
20260831072012 62 146 5.0 10.0 0.00 0.69 0.02 93 1006.9
20260831071522 62 216 4.0 11.0 0.01 0.69 0.02 93 1007.0
20260831071008 62 55 3.0 11.0 0.01 0.69 0.02 93 1007.1
20260831070508 62 130 2.0 7.0 0.01 0.69 0.02 93 1006.8
20260831070018 62 121 2.0 7.0 0.01 0.69 0.02 93 1006.6
20260831065508 62 244 2.0 6.0 0.01 0.77 0.02 93 1006.8
20260831065010 62 135 1.0 8.0 0.01 0.77 0.02 93 1007.1
20260831064506 62 130 3.0 8.0 0.01 0.77 0.02 94 1007.3
20260831064005 62 150 2.0 8.0 0.01 0.77 0.02 93 1007.4
20260831063505 62 144 2.0 10.0 0.01 0.77 0.02 93 1007.6
20260831063005 62 95 1.0 10.0 0.01 0.77 0.02 93 1007.6
20260831062505 62 105 2.0 8.0 0.01 0.77 0.02 93 1007.6
20260831062005 62 342 2.0 9.0 0.01 0.77 0.02 93 1007.6
20260831061506 62 113 2.0 5.0 0.00 0.76 0.01 93 1007.6
20260831061004 62 190 1.0 6.0 0.00 0.76 0.01 93 1007.6
20260831060504 62 69 2.0 6.0 0.00 0.76 0.01 93 1007.5
20260831060005 62 125 1.0 5.0 0.00 0.76 0.01 93 1007.4
20260831055504 62 96 2.0 6.0 0.00 0.97 0.01 93 1007.3
20260831055005 62 184 2.0 9.0 0.00 0.97 0.01 93 1007.3
20260831054503 62 113 2.0 9.0 0.00 0.97 0.01 93 1007.4
20260831054003 62 237 2.0 8.0 0.00 0.97 0.01 94 1007.2
20260831053501 61 114 2.0 7.0 0.00 0.97 0.01 94 1007.1
20260831053105 61 117 3.0 7.0 0.00 0.97 0.01 96 1007.0
20260831052557 61 261 3.0 7.0 0.00 0.97 0.01 94 1007.1
20260831052056 61 133 2.0 7.0 0.00 0.97 0.01 94 1007.1
20260831051555 61 107 2.0 6.0 0.00 0.97 0.01 94 1007.1
20260831051053 61 101 2.0 8.0 0.00 0.97 0.01 94 1007.2
20260831050552 61 132 3.0 8.0 0.00 0.97 0.01 94 1007.1
20260831050109 61 115 2.0 6.0 0.00 0.97 0.01 94 1007.0
20260831045552 61 145 2.0 7.0 0.00 0.97 0.01 94 1007.0
20260831045051 61 150 1.0 7.0 0.00 0.97 0.01 94 1007.1
20260831044614 61 182 2.0 6.0 0.00 0.97 0.01 95 1007.1
20260831044050 61 98 2.0 6.0 0.00 0.97 0.01 95 1007.2
20260831043549 61 253 2.0 6.0 0.00 0.97 0.01 95 1007.2
20260831043050 61 160 1.0 5.0 0.00 0.97 0.01 95 1007.1
20260831042549 61 127 1.0 5.0 0.00 0.97 0.01 95 1007.1
20260831042048 61 121 1.0 5.0 0.00 0.97 0.01 95 1007.1
20260831041602 61 83 2.0 4.0 0.00 0.97 0.01 95 1007.2
20260831041049 61 146 1.0 7.0 0.00 0.97 0.01 96 1007.2
20260831040548 61 158 1.0 8.0 0.00 0.97 0.01 96 1007.1
20260831040048 61 105 1.0 8.0 0.00 0.97 0.01 96 1007.1
20260831035548 61 152 1.0 3.0 0.00 0.97 0.01 96 1007.1
20260831035046 61 156 1.0 3.0 0.00 0.97 0.01 96 1007.2
20260831034546 61 290 1.0 4.0 0.00 0.97 0.01 96 1007.2
20260831034046 61 171 1.0 4.0 0.00 0.97 0.01 96 1007.4
20260831033545 61 177 2.0 5.0 0.00 0.97 0.01 96 1007.4
20260831033045 61 102 2.0 6.0 0.00 0.97 0.01 96 1007.5
20260831032546 61 132 2.0 9.0 0.00 0.97 0.01 97 1007.5
20260831032043 61 107 2.0 9.0 0.00 0.97 0.01 97 1007.5
20260831031547 61 109 2.0 9.0 0.00 0.97 0.01 97 1007.6
20260831031042 60 187 2.0 5.0 0.00 0.97 0.01 97 1007.5
20260831030547 60 113 1.0 4.0 0.00 0.97 0.01 97 1007.6
20260831030043 60 124 1.0 4.0 0.00 0.97 0.01 97 1007.5
20260831025542 60 126 1.0 6.0 0.00 0.98 0.01 97 1007.7
20260831025042 60 120 1.0 6.0 0.00 0.98 0.01 97 1007.6
20260831024607 60 148 1.0 6.0 0.00 0.98 0.01 97 1007.6
20260831024042 60 147 0.0 3.0 0.00 0.98 0.01 96 1007.6
20260831023541 60 122 1.0 3.0 0.00 0.98 0.01 96 1007.7
20260831023041 60 128 1.0 3.0 0.00 0.98 0.01 96 1007.7
20260831022539 60 120 0.0 3.0 0.00 0.98 0.01 96 1007.7
20260831022038 60 121 0.0 2.0 0.00 0.98 0.01 96 1007.8
20260831021538 60 122 0.0 2.0 0.00 0.98 0.01 96 1007.9
20260831021038 60 105 0.0 2.0 0.00 0.98 0.01 96 1007.9
20260831020539 60 119 1.0 3.0 0.00 0.98 0.01 96 1007.9
20260831020100 60 103 1.0 3.0 0.00 0.98 0.01 96 1007.9
20260831015540 60 110 1.0 5.0 0.00 1.04 0.01 96 1007.9
20260831015036 60 160 0.0 5.0 0.00 1.04 0.01 97 1007.8
20260831014551 61 118 1.0 4.0 0.00 1.04 0.01 97 1007.9
20260831014036 61 181 1.0 4.0 0.00 1.04 0.01 97 1008.1
20260831013536 61 111 1.0 4.0 0.00 1.04 0.01 97 1008.2
20260831013035 61 156 1.0 4.0 0.00 1.04 0.01 97 1008.2
20260831012537 61 209 2.0 3.0 0.00 1.04 0.01 97 1008.2
20260831012038 61 180 1.0 4.0 0.00 1.04 0.01 97 1008.1
20260831011537 61 120 2.0 4.0 0.00 1.04 0.01 97 1008.2
20260831011034 61 121 1.0 4.0 0.00 1.04 0.01 97 1008.1
20260831010533 61 115 1.0 4.0 0.00 1.04 0.01 97 1008.0
20260831010043 61 137 1.0 4.0 0.00 1.04 0.01 96 1007.9
20260831005532 61 118 1.0 4.0 0.00 1.04 0.01 96 1007.9
20260831005032 61 106 0.0 4.0 0.01 1.04 0.01 97 1008.0
20260831004531 61 119 1.0 6.0 0.01 1.04 0.01 96 1007.9
20260831004031 62 119 2.0 6.0 0.01 1.04 0.01 96 1008.0
20260831003531 62 115 1.0 4.0 0.01 1.04 0.01 96 1008.0
20260831003029 62 117 1.0 4.0 0.01 1.04 0.01 97 1007.9
20260831002528 62 100 1.0 3.0 0.01 1.04 0.01 97 1008.2
20260831002027 62 130 0.0 4.0 0.01 1.04 0.01 97 1008.3
20260831001536 62 114 1.0 4.0 0.01 1.04 0.01 97 1008.3
20260831001026 62 107 2.0 4.0 0.01 1.04 0.01 97 1008.5
20260831000525 62 123 1.0 3.0 0.01 1.04 0.01 97 1008.5
20260831000025 62 115 1.0 6.0 0.01 1.04 0.01 97 1008.5
20260830235530 62 207 1.0 6.0 0.01 1.20 0.01 97 1008.5
20260830235027 62 149 1.0 6.0 0.00 1.20 0.00 96 1008.6
20260830234537 62 123 2.0 6.0 0.00 1.20 0.00 96 1008.7
20260830234022 62 134 0.0 2.0 0.00 1.20 0.00 96 1008.7
20260830233525 62 153 0.0 3.0 0.00 1.20 0.00 96 1008.6
20260830233023 62 136 0.0 3.0 0.00 1.20 0.00 96 1008.6
20260830232521 62 124 0.0 3.0 0.00 1.20 0.00 96 1008.7
20260830232020 62 118 0.0 3.0 0.00 1.20 0.00 96 1008.7
20260830231520 62 158 0.0 2.0 0.00 1.20 0.00 96 1008.7
20260830231020 62 128 0.0 2.0 0.00 1.20 0.00 96 1008.6
20260830230519 62 128 1.0 2.0 0.00 1.20 0.00 96 1008.7
20260830230031 62 130 0.0 2.0 0.00 1.20 0.00 96 1008.8
20260830225519 62 132 0.0 2.0 0.00 1.20 0.00 96 1008.8
20260830225022 62 137 0.0 2.0 0.00 1.20 0.00 95 1008.8
20260830224529 62 137 0.0 2.0 0.01 1.20 0.00 95 1008.9
20260830224019 62 157 0.0 2.0 0.02 1.20 0.00 95 1008.8
20260830223517 62 120 0.0 2.0 0.06 1.20 0.00 95 1008.9
20260830223019 62 109 0.0 2.0 0.06 1.20 0.00 95 1009.0
20260830222514 62 109 0.0 2.0 0.06 1.20 0.00 95 1009.0
20260830222018 62 109 0.0 0.0 0.07 1.20 0.00 95 1009.1
20260830221513 62 109 0.0 0.0 0.08 1.20 0.00 95 1009.2
20260830221014 62 109 0.0 1.0 0.09 1.20 0.00 95 1009.2
20260830220513 62 109 0.0 1.0 0.12 1.20 0.00 95 1009.1
20260830220024 62 109 0.0 1.0 0.19 1.20 0.00 94 1009.2
20260830215512 62 109 0.0 2.0 0.24 1.21 1.20 94 1009.3
20260830215011 62 109 0.0 2.0 0.24 1.21 1.20 94 1009.5
20260830214510 63 109 0.0 5.0 0.24 1.20 1.19 94 1009.7
20260830214009 63 174 1.0 6.0 0.21 1.18 1.17 94 1009.7
20260830213509 63 126 1.0 6.0 0.19 1.15 1.13 93 1009.9
20260830213009 63 85 1.0 3.0 0.18 1.14 1.12 93 1009.9